Location: Rostock
(54.0884°N, 12.1234°E)
Time: 08:45:58
(UTC+02:00)

ISS - Pass Details

Date: 12 February 2018
Orbit: 402 x 406 km, 51.6° (Epoch: 21 June)

Event Time Altitude Azimuth Distance (km) Brightness Sun altitude
Rises 18:26:39 0° 274° (W) 2,321 1.9 -11.1°
Reaches altitude 10° 18:29:53 10° 239° (WSW) 1,457 0.1 -11.5°
Maximum altitude 18:31:01 11° 219° (SW) 1,372 -0.5 -11.7°
Drops below altitude 10° 18:32:09 10° 198° (SSW) 1,454 -0.7 -11.9°
Enters shadow 18:37:09 -5° 154° (SSE) 2,943 0.3 -12.6°
